Home   Weather   Fresno   Past weeks

Flag for USA Past Weather in Fresno, California, USA — Yesterday and Last 2 Weeks

63 °F

Mostly cloudy.

Feels Like: 63 °F
Forecast: 58 / 77 °F
Wind: 5 mph from Southeast

Location: Fresno Air Terminal

Current Time: Oct 27, 2016 at 9:47:32 AM

Latest Report: Oct 27, 2016 at 8:53 AM

Visibility: 7 mi

Pressure: 30.01 "Hg

Humidity: 58%

Dew Point: 48 °F

Location of FresnoLocation

Past Weather in Fresno — Graph


Fresno Temperature Yesterday

Maximum temperature yesterday: 84 °F (at 3:53 PM)
Minimum temperature yesterday: 54 °F (at 5:53 AM)
Average temperature yesterday: 68 °F

High & Low Weather Summary for the Past Weeks

High84 °F (Oct 26, 3:53 PM)87% (Oct 17, 6:53 AM)30.20 "Hg (Oct 17, 6:53 AM)
Low49 °F (Oct 19, 6:53 AM)22% (Oct 23, 4:53 PM)29.80 "Hg (Oct 22, 5:53 PM)
Average67 °F53%29.99 "Hg
* Reported Oct 12 7:53 AM — Oct 27 7:53 AM, Fresno, Weather by CustomWeather, © 2016

Note: Actual official high and low records may vary slightly from our data, if they occured in-between our weather recording intervals... More about our weather records


Fresno Weather History for the Previous 24 Hours

Scroll right to see more
Time TempWeatherWind HumidityBarometerVisibility
7:53 AM
Thu, Oct 27
60 °FMore clouds than sun.6 mph62%29.99 "Hg10 mi
6:53 AM59 °FPassing clouds.7 mph58%29.96 "Hg10 mi
5:53 AM58 °FPassing clouds.3 mph58%29.96 "Hg10 mi
4:53 AM57 °FPassing clouds.No wind60%29.96 "Hg10 mi
3:53 AM59 °FPassing clouds.No wind58%29.96 "Hg10 mi
2:53 AM60 °FPassing clouds.No wind58%29.98 "Hg10 mi
1:53 AM61 °FPassing clouds.No wind54%29.98 "Hg10 mi
12:53 AM62 °FPassing clouds.7 mph54%29.98 "Hg10 mi
11:53 PM
Wed, Oct 26
62 °FPassing clouds.3 mph54%29.98 "Hg10 mi
10:53 PM65 °FPassing clouds.No wind49%29.96 "Hg10 mi
9:53 PM66 °FPassing clouds.No wind47%29.96 "Hg10 mi
8:53 PM69 °FPassing clouds.3 mph42%29.96 "Hg10 mi
7:53 PM72 °FPassing clouds.No wind37%29.94 "Hg10 mi
6:53 PM74 °FPassing clouds.3 mph33%29.93 "Hg10 mi
5:53 PM81 °FScattered clouds.No wind23%29.93 "Hg10 mi
4:53 PM84 °FPassing clouds.3 mph22%29.93 "Hg10 mi
3:53 PM84 °FScattered clouds.No wind23%29.95 "Hg10 mi
2:53 PM83 °FPartly sunny.6 mph24%29.97 "Hg10 mi
1:53 PM82 °FScattered clouds.5 mph28%29.99 "Hg10 mi
12:53 PM80 °FPartly sunny.7 mph29%30.02 "Hg10 mi
11:53 AM77 °FScattered clouds.5 mph33%30.06 "Hg10 mi
10:53 AM73 °FPassing clouds.3 mph38%30.07 "Hg10 mi
9:53 AM67 °FPassing clouds.3 mph47%30.08 "Hg10 mi
Weather by CustomWeather, © 2016

See weather overviewHow to use our weather pages